星链-32519 (STARLINK-32519)

导读 | 星芒AI

STARLINK-32519 是 SpaceX Starlink 卫星互联网项目中的一颗低轨卫星,属于第 6 批次发射的星链卫星群。该卫星于 2023 年发射,运行在约 550 公里的轨道高度,旨在为全球用户提供高速互联网服务。作为星链计划的一部分,它与其他数千颗卫星协同工作,提升网络覆盖与连接稳定性。该系统主要用于支持偏远地区通信,也具备潜在的军事与应急通信应用价值。

基本信息
目录编号:
62317
目录名称:
STARLINK-32519
国际标识:
2024-239S
轨道中心:
EARTH
卫星名称:
星链-32519
卫星全名:
星链-32519 (STARLINK-32519)
卫星状态:
在轨 (已飞行329 天)
发射日期:
2024-12-13 UTC
国别 :
美国 (US)
星等 :
--
轨道信息
数据来源 国际轨道数据
星历时间: 2025-11-06T22:32:28+0800
1天前
查看轨道信息
半长轴: 6853.621km
偏心率: 0.0001668
轨道倾角: 53.160°
近地点辐角 75.549°
升交点赤经 32.534°
平近点角 284.569°
近地点: 474.342km
远地点: 476.63km
周期: 94.111分钟
每日圈数: 15.301101
详细信息
固有亮度:
5
最大亮度:
2.5
卫星平台:
Starlink V1.0
覆盖范围:
全球
运营商:
太空探索技术公司
运营商所在国:
美国
制造商(研发单位):
太空探索技术公司
制造商所在国:
美国
使用方式:
暂无
卫星简介
Starlink 计划是 SpaceX 推出的全球卫星互联网项目,通过发射低轨道卫星,为全球尤其是偏远地区提供高速、低延迟的互联网服务。自 2019 年起,Starlink 已部署数千颗卫星,旨在缩小全球数字鸿沟,推动互联网普及。该项目还为军事、航空等行业提供通信支持,带来广泛经济效益。
2D轨道图
3D轨道图
轨道高度分析图
轨道倾角分析图
轨道综合分析图
查看轨道综合分析图